Time,TemperatureF,DewpointF,PressureIn,WindDirection,WindDirectionDegrees,WindSpeedMPH,WindSpeedGustMPH,Humidity,HourlyPrecipIn,Conditions,Clouds,dailyrainin,SolarRadiationWatts/m^2,SoftwareType,DateUTC
2013-05-27 00:01:00,56.9,52.4,30.19,WSW,248,0.0,-999.0,85,0.00,,,0.00,0,Wunderground v.1.15,2013-05-27 04:01:00,
2013-05-27 00:02:00,56.9,52.4,30.19,WSW,248,0.0,-999.0,85,0.00,,,0.00,0,Wunderground v.1.15,2013-05-27 04:02:00,
2013-05-27 00:05:00,56.8,52.3,30.19,WSW,248,0.0,-999.0,85,0.00,,,0.00,0,Wunderground v.1.15,2013-05-27 04:05:00,
2013-05-27 00:07:00,56.8,52.3,30.18,WSW,248,0.0,-999.0,85,0.00,,,0.00,0,Wunderground v.1.15,2013-05-27 04:07:00,
2013-05-27 00:08:00,56.8,52.3,30.19,WSW,248,0.0,-999.0,85,0.00,,,0.00,0,Wunderground v.1.15,2013-05-27 04:08:00,
2013-05-27 00:13:00,56.6,52.5,30.19,WSW,248,0.0,-999.0,86,0.00,,,0.00,0,Wunderground v.1.15,2013-05-27 04:13:00,
2013-05-27 00:19:00,56.4,52.3,30.19,WSW,248,0.0,-999.0,86,0.00,,,0.00,0,Wunderground v.1.15,2013-05-27 04:19:00,
2013-05-27 00:24:00,56.3,52.2,30.19,WSW,248,0.0,-999.0,86,0.00,,,0.00,0,Wunderground v.1.15,2013-05-27 04:24:00,
2013-05-27 00:29:00,56.2,52.1,30.19,WSW,248,0.0,-999.0,86,0.00,,,0.00,0,Wunderground v.1.15,2013-05-27 04:29:00,
2013-05-27 00:34:00,56.1,52.0,30.19,WSW,248,0.0,-999.0,86,0.00,,,0.00,0,Wunderground v.1.15,2013-05-27 04:34:00,
2013-05-27 00:39:00,56.0,52.2,30.19,WSW,248,0.0,-999.0,87,0.00,,,0.00,0,Wunderground v.1.15,2013-05-27 04:39:00,
2013-05-27 00:45:00,55.9,52.1,30.19,WSW,248,0.0,-999.0,87,0.00,,,0.00,0,Wunderground v.1.15,2013-05-27 04:45:00,
2013-05-27 00:50:00,55.8,52.0,30.20,WSW,248,0.0,-999.0,87,0.00,,,0.00,0,Wunderground v.1.15,2013-05-27 04:50:00,
2013-05-27 00:55:00,55.7,51.9,30.19,WSW,248,0.0,-999.0,87,0.00,,,0.00,0,Wunderground v.1.15,2013-05-27 04:55:00,
2013-05-27 01:00:00,55.6,52.1,30.19,WSW,248,0.0,-999.0,88,0.00,,,0.00,0,Wunderground v.1.15,2013-05-27 05:00:00,
2013-05-27 01:05:00,55.5,52.0,30.20,WSW,248,0.0,-999.0,88,0.00,,,0.00,0,Wunderground v.1.15,2013-05-27 05:05:00,
2013-05-27 01:11:00,55.3,51.8,30.20,WSW,248,0.0,-999.0,88,0.00,,,0.00,0,Wunderground v.1.15,2013-05-27 05:11:00,
2013-05-27 01:16:00,55.3,51.8,30.20,WSW,248,0.0,-999.0,88,0.00,,,0.00,0,Wunderground v.1.15,2013-05-27 05:16:00,
2013-05-27 01:21:00,55.1,51.6,30.20,WSW,248,0.0,-999.0,88,0.00,,,0.00,0,Wunderground v.1.15,2013-05-27 05:21:00,
2013-05-27 01:26:00,55.0,51.5,30.20,WSW,248,0.0,-999.0,88,0.00,,,0.00,0,Wunderground v.1.15,2013-05-27 05:26:00,
2013-05-27 01:32:00,54.9,51.4,30.20,WSW,248,0.0,-999.0,88,0.00,,,0.00,0,Wunderground v.1.15,2013-05-27 05:32:00,
2013-05-27 01:37:00,54.9,51.4,30.20,WSW,248,0.0,-999.0,88,0.00,,,0.00,0,Wunderground v.1.15,2013-05-27 05:37:00,
2013-05-27 01:42:00,54.8,51.3,30.20,WSW,248,0.0,-999.0,88,0.00,,,0.00,0,Wunderground v.1.15,2013-05-27 05:42:00,
2013-05-27 01:47:00,54.7,51.2,30.20,WSW,248,0.0,-999.0,88,0.00,,,0.00,0,Wunderground v.1.15,2013-05-27 05:47:00,
2013-05-27 01:53:00,54.5,51.3,30.20,WSW,248,0.0,-999.0,89,0.00,,,0.00,0,Wunderground v.1.15,2013-05-27 05:53:00,
2013-05-27 01:59:00,54.4,51.2,30.20,WSW,248,0.0,-999.0,89,0.00,,,0.00,0,Wunderground v.1.15,2013-05-27 05:59:00,
2013-05-27 02:05:00,54.3,51.1,30.20,WSW,248,0.0,-999.0,89,0.00,,,0.00,0,Wunderground v.1.15,2013-05-27 06:05:00,
2013-05-27 02:10:00,54.2,51.0,30.20,WSW,248,0.0,-999.0,89,0.00,,,0.00,0,Wunderground v.1.15,2013-05-27 06:10:00,
2013-05-27 02:15:00,54.1,50.9,30.20,WSW,248,0.0,-999.0,89,0.00,,,0.00,0,Wunderground v.1.15,2013-05-27 06:15:00,
2013-05-27 02:20:00,54.0,50.8,30.20,WSW,248,0.0,-999.0,89,0.00,,,0.00,0,Wunderground v.1.15,2013-05-27 06:20:00,
2013-05-27 02:25:00,54.0,50.8,30.20,WSW,248,0.0,-999.0,89,0.00,,,0.00,0,Wunderground v.1.15,2013-05-27 06:25:00,
2013-05-27 02:30:00,53.9,50.7,30.20,WSW,248,0.0,-999.0,89,0.00,,,0.00,0,Wunderground v.1.15,2013-05-27 06:30:00,
2013-05-27 02:35:00,53.8,50.6,30.20,WSW,248,0.0,-999.0,89,0.00,,,0.00,0,Wunderground v.1.15,2013-05-27 06:35:00,
2013-05-27 02:41:00,53.7,50.5,30.20,WSW,248,0.0,-999.0,89,0.00,,,0.00,0,Wunderground v.1.15,2013-05-27 06:41:00,
2013-05-27 02:46:00,53.6,50.7,30.19,WSW,248,0.0,-999.0,90,0.00,,,0.00,0,Wunderground v.1.15,2013-05-27 06:46:00,
2013-05-27 02:51:00,53.6,50.7,30.20,WSW,248,0.0,-999.0,90,0.00,,,0.00,0,Wunderground v.1.15,2013-05-27 06:51:00,
2013-05-27 02:56:00,53.5,50.6,30.20,WSW,248,0.0,-999.0,90,0.00,,,0.00,0,Wunderground v.1.15,2013-05-27 06:56:00,
2013-05-27 03:01:00,53.4,50.5,30.20,WSW,248,0.0,-999.0,90,0.00,,,0.00,0,Wunderground v.1.15,2013-05-27 07:01:00,
2013-05-27 03:07:00,53.3,50.4,30.20,WSW,248,0.0,-999.0,90,0.00,,,0.00,0,Wunderground v.1.15,2013-05-27 07:07:00,
2013-05-27 03:12:00,53.2,50.3,30.20,WSW,248,0.0,-999.0,90,0.00,,,0.00,0,Wunderground v.1.15,2013-05-27 07:12:00,
2013-05-27 03:18:00,53.0,50.1,30.20,WSW,248,0.0,-999.0,90,0.00,,,0.00,0,Wunderground v.1.15,2013-05-27 07:18:00,
2013-05-27 03:23:00,52.9,50.0,30.20,WSW,248,0.0,-999.0,90,0.00,,,0.00,0,Wunderground v.1.15,2013-05-27 07:23:00,
2013-05-27 03:29:00,52.8,49.9,30.20,WSW,248,0.0,-999.0,90,0.00,,,0.00,0,Wunderground v.1.15,2013-05-27 07:29:00,
2013-05-27 03:34:00,52.8,49.9,30.20,WSW,248,0.0,-999.0,90,0.00,,,0.00,0,Wunderground v.1.15,2013-05-27 07:34:00,
2013-05-27 03:39:00,52.6,50.0,30.20,WSW,248,0.0,-999.0,91,0.00,,,0.00,0,Wunderground v.1.15,2013-05-27 07:39:00,
2013-05-27 03:45:00,52.5,49.9,30.20,WSW,248,0.0,-999.0,91,0.00,,,0.00,0,Wunderground v.1.15,2013-05-27 07:45:00,
2013-05-27 03:51:00,52.4,49.8,30.20,WSW,248,0.0,-999.0,91,0.00,,,0.00,0,Wunderground v.1.15,2013-05-27 07:51:00,
2013-05-27 03:56:00,52.3,49.5,30.20,WSW,248,0.0,-999.0,90,0.00,,,0.00,0,Wunderground v.1.15,2013-05-27 07:56:00,
2013-05-27 04:01:00,52.2,49.7,30.20,WSW,248,0.0,-999.0,91,0.00,,,0.00,0,Wunderground v.1.15,2013-05-27 08:01:00,
2013-05-27 04:06:00,52.2,49.7,30.20,WSW,248,0.0,-999.0,91,0.00,,,0.00,0,Wunderground v.1.15,2013-05-27 08:06:00,
2013-05-27 04:13:00,52.1,49.6,30.20,WSW,248,0.0,-999.0,91,0.00,,,0.00,0,Wunderground v.1.15,2013-05-27 08:13:00,
2013-05-27 04:18:00,52.0,49.5,30.20,WSW,248,0.0,-999.0,91,0.00,,,0.00,0,Wunderground v.1.15,2013-05-27 08:18:00,
2013-05-27 04:23:00,51.9,49.4,30.20,WSW,248,0.0,-999.0,91,0.00,,,0.00,0,Wunderground v.1.15,2013-05-27 08:23:00,
2013-05-27 04:28:00,51.8,49.3,30.20,WSW,248,0.0,-999.0,91,0.00,,,0.00,0,Wunderground v.1.15,2013-05-27 08:28:00,
2013-05-27 04:33:00,51.8,49.3,30.20,WSW,248,0.0,-999.0,91,0.00,,,0.00,0,Wunderground v.1.15,2013-05-27 08:33:00,
2013-05-27 04:38:00,51.7,49.2,30.20,WSW,248,0.0,-999.0,91,0.00,,,0.00,0,Wunderground v.1.15,2013-05-27 08:38:00,
2013-05-27 04:43:00,51.7,49.2,30.20,WSW,248,0.0,-999.0,91,0.00,,,0.00,0,Wunderground v.1.15,2013-05-27 08:43:00,
2013-05-27 04:49:00,51.6,49.1,30.20,WSW,248,0.0,-999.0,91,0.00,,,0.00,0,Wunderground v.1.15,2013-05-27 08:49:00,
2013-05-27 04:54:00,51.5,49.0,30.20,WSW,248,0.0,-999.0,91,0.00,,,0.00,0,Wunderground v.1.15,2013-05-27 08:54:00,
2013-05-27 04:59:00,51.5,49.0,30.20,WSW,248,0.0,-999.0,91,0.00,,,0.00,0,Wunderground v.1.15,2013-05-27 08:59:00,
2013-05-27 05:06:00,51.5,49.0,30.20,WSW,248,0.0,-999.0,91,0.00,,,0.00,0,Wunderground v.1.15,2013-05-27 09:06:00,
2013-05-27 05:12:00,51.5,49.0,30.20,WSW,248,0.0,-999.0,91,0.00,,,0.00,0,Wunderground v.1.15,2013-05-27 09:12:00,
2013-05-27 05:17:00,51.4,48.9,30.21,WSW,248,0.0,-999.0,91,0.00,,,0.00,0,Wunderground v.1.15,2013-05-27 09:17:00,
2013-05-27 05:23:00,51.4,48.9,30.21,WSW,248,0.0,-999.0,91,0.00,,,0.00,0,Wunderground v.1.15,2013-05-27 09:23:00,
2013-05-27 05:28:00,51.5,49.0,30.21,WSW,248,0.0,-999.0,91,0.00,,,0.00,0,Wunderground v.1.15,2013-05-27 09:28:00,
2013-05-27 05:34:00,51.4,48.9,30.21,WSW,248,0.0,-999.0,91,0.00,,,0.00,0,Wunderground v.1.15,2013-05-27 09:34:00,
2013-05-27 05:39:00,51.4,48.9,30.21,WSW,248,0.0,-999.0,91,0.00,,,0.00,0,Wunderground v.1.15,2013-05-27 09:39:00,
2013-05-27 05:44:00,51.4,49.2,30.21,WSW,248,0.0,-999.0,92,0.00,,,0.00,0,Wunderground v.1.15,2013-05-27 09:44:00,
2013-05-27 05:49:00,51.4,48.9,30.21,WSW,248,0.0,-999.0,91,0.00,,,0.00,0,Wunderground v.1.15,2013-05-27 09:49:00,
2013-05-27 05:54:00,51.4,48.9,30.21,WSW,248,0.0,-999.0,91,0.00,,,0.00,0,Wunderground v.1.15,2013-05-27 09:54:00,
2013-05-27 06:00:00,51.3,48.8,30.22,WSW,248,0.0,-999.0,91,0.00,,,0.00,0,Wunderground v.1.15,2013-05-27 10:00:00,
2013-05-27 06:05:00,51.3,49.1,30.22,WSW,248,0.0,-999.0,92,0.00,,,0.00,0,Wunderground v.1.15,2013-05-27 10:05:00,
2013-05-27 06:10:00,51.2,49.0,30.23,WSW,248,0.0,-999.0,92,0.00,,,0.00,0,Wunderground v.1.15,2013-05-27 10:10:00,
2013-05-27 06:16:00,51.2,49.0,30.23,WSW,248,0.0,-999.0,92,0.00,,,0.00,5,Wunderground v.1.15,2013-05-27 10:16:00,
2013-05-27 06:21:00,51.1,48.9,30.23,WSW,248,0.0,-999.0,92,0.00,,,0.00,7,Wunderground v.1.15,2013-05-27 10:21:00,
2013-05-27 06:26:00,51.1,48.9,30.23,WSW,248,0.0,-999.0,92,0.00,,,0.00,9,Wunderground v.1.15,2013-05-27 10:26:00,
2013-05-27 06:31:00,51.0,48.8,30.23,WSW,248,0.0,-999.0,92,0.00,,,0.00,11,Wunderground v.1.15,2013-05-27 10:31:00,
2013-05-27 06:37:00,51.0,48.8,30.23,WSW,248,0.0,-999.0,92,0.00,,,0.00,14,Wunderground v.1.15,2013-05-27 10:37:00,
2013-05-27 06:43:00,51.0,48.8,30.23,WSW,248,0.0,-999.0,92,0.00,,,0.00,18,Wunderground v.1.15,2013-05-27 10:43:00,
2013-05-27 06:48:00,50.9,48.7,30.23,WSW,248,0.0,-999.0,92,0.00,,,0.00,21,Wunderground v.1.15,2013-05-27 10:48:00,
2013-05-27 06:54:00,50.9,48.7,30.24,WSW,248,0.0,-999.0,92,0.00,,,0.00,25,Wunderground v.1.15,2013-05-27 10:54:00,
2013-05-27 06:59:00,50.9,48.7,30.24,WSW,248,0.0,-999.0,92,0.00,,,0.00,26,Wunderground v.1.15,2013-05-27 10:59:00,
2013-05-27 07:05:00,51.0,48.8,30.24,WSW,248,0.0,-999.0,92,0.00,,,0.00,28,Wunderground v.1.15,2013-05-27 11:05:00,
2013-05-27 07:10:00,51.1,48.9,30.24,WSW,248,0.0,-999.0,92,0.00,,,0.00,30,Wunderground v.1.15,2013-05-27 11:10:00,
2013-05-27 07:15:00,51.3,49.1,30.24,WSW,248,0.0,-999.0,92,0.00,,,0.00,30,Wunderground v.1.15,2013-05-27 11:15:00,
2013-05-27 07:21:00,51.5,49.3,30.24,WSW,248,0.0,-999.0,92,0.00,,,0.00,32,Wunderground v.1.15,2013-05-27 11:21:00,
2013-05-27 07:26:00,51.8,49.8,30.25,WSW,248,0.0,-999.0,93,0.00,,,0.00,35,Wunderground v.1.15,2013-05-27 11:26:00,
2013-05-27 07:31:00,52.1,50.1,30.24,WSW,248,0.0,-999.0,93,0.00,,,0.00,37,Wunderground v.1.15,2013-05-27 11:31:00,
2013-05-27 07:36:00,52.4,50.4,30.24,WSW,248,0.0,-999.0,93,0.00,,,0.00,37,Wunderground v.1.15,2013-05-27 11:36:00,
2013-05-27 07:41:00,52.7,50.7,30.25,WSW,248,0.0,-999.0,93,0.00,,,0.00,39,Wunderground v.1.15,2013-05-27 11:41:00,
2013-05-27 07:46:00,53.2,51.2,30.24,WSW,248,0.0,-999.0,93,0.00,,,0.00,40,Wunderground v.1.15,2013-05-27 11:46:00,
2013-05-27 07:51:00,53.5,51.8,30.24,WSW,248,0.0,-999.0,94,0.00,,,0.00,40,Wunderground v.1.15,2013-05-27 11:51:00,
2013-05-27 07:56:00,53.9,51.9,30.24,SW,216,0.0,-999.0,93,0.00,,,0.00,42,Wunderground v.1.15,2013-05-27 11:56:00,
2013-05-27 08:01:00,54.3,52.6,30.25,SW,216,0.0,-999.0,94,0.00,,,0.00,51,Wunderground v.1.15,2013-05-27 12:01:00,
2013-05-27 08:07:00,54.7,53.0,30.24,SW,216,0.0,-999.0,94,0.00,,,0.00,158,Wunderground v.1.15,2013-05-27 12:07:00,
2013-05-27 08:12:00,55.1,53.4,30.25,SW,216,0.0,-999.0,94,0.00,,,0.00,49,Wunderground v.1.15,2013-05-27 12:12:00,
2013-05-27 08:18:00,55.5,53.8,30.25,SW,216,0.0,-999.0,94,0.00,,,0.00,60,Wunderground v.1.15,2013-05-27 12:18:00,
2013-05-27 08:23:00,56.0,54.3,30.25,SW,216,0.0,-999.0,94,0.00,,,0.00,330,Wunderground v.1.15,2013-05-27 12:23:00,
2013-05-27 08:28:00,56.6,54.9,30.25,SW,216,0.0,-999.0,94,0.00,,,0.00,121,Wunderground v.1.15,2013-05-27 12:28:00,
2013-05-27 08:33:00,57.3,55.6,30.25,SW,216,0.0,-999.0,94,0.00,,,0.00,60,Wunderground v.1.15,2013-05-27 12:33:00,
2013-05-27 08:39:00,58.0,56.0,30.25,SW,216,0.0,-999.0,93,0.00,,,0.00,65,Wunderground v.1.15,2013-05-27 12:39:00,
2013-05-27 08:45:00,58.6,56.3,30.26,SW,216,0.0,-999.0,92,0.00,,,0.00,413,Wunderground v.1.15,2013-05-27 12:45:00,
2013-05-27 08:50:00,59.4,55.8,30.26,SW,216,0.0,-999.0,88,0.00,,,0.00,385,Wunderground v.1.15,2013-05-27 12:50:00,
2013-05-27 08:55:00,60.9,56.0,30.26,SW,216,0.0,-999.0,84,0.00,,,0.00,439,Wunderground v.1.15,2013-05-27 12:55:00,
2013-05-27 09:00:00,62.0,55.1,30.26,SW,216,0.0,-999.0,78,0.00,,,0.00,483,Wunderground v.1.15,2013-05-27 13:00:00,
2013-05-27 09:05:00,63.1,53.9,30.26,SW,216,0.0,-999.0,72,0.00,,,0.00,387,Wunderground v.1.15,2013-05-27 13:05:00,
2013-05-27 09:11:00,64.6,54.6,30.26,SW,216,0.0,-999.0,70,0.00,,,0.00,483,Wunderground v.1.15,2013-05-27 13:11:00,
2013-05-27 09:16:00,65.2,54.4,30.26,SW,216,0.0,-999.0,68,0.00,,,0.00,533,Wunderground v.1.15,2013-05-27 13:16:00,
2013-05-27 09:21:00,65.9,53.4,30.26,SW,216,0.0,-999.0,64,0.00,,,0.00,601,Wunderground v.1.15,2013-05-27 13:21:00,
2013-05-27 09:26:00,66.6,54.5,30.26,NNW,330,0.0,-999.0,65,0.00,,,0.00,550,Wunderground v.1.15,2013-05-27 13:26:00,
2013-05-27 09:31:00,67.1,54.1,30.26,NNW,330,0.0,-999.0,63,0.00,,,0.00,504,Wunderground v.1.15,2013-05-27 13:31:00,
2013-05-27 09:36:00,67.6,55.0,30.25,NNW,330,0.0,-999.0,64,0.00,,,0.00,436,Wunderground v.1.15,2013-05-27 13:36:00,
2013-05-27 09:42:00,68.0,54.9,30.25,WSW,240,0.0,-999.0,63,0.00,,,0.00,320,Wunderground v.1.15,2013-05-27 13:42:00,
2013-05-27 09:47:00,68.4,55.7,30.25,WSW,240,0.0,-999.0,64,0.00,,,0.00,596,Wunderground v.1.15,2013-05-27 13:47:00,
2013-05-27 09:52:00,68.7,55.2,30.25,WSW,238,0.0,-999.0,62,0.00,,,0.00,559,Wunderground v.1.15,2013-05-27 13:52:00,
2013-05-27 09:57:00,68.9,54.9,30.25,WSW,248,0.0,-999.0,61,0.00,,,0.00,571,Wunderground v.1.15,2013-05-27 13:57:00,
2013-05-27 10:03:00,69.1,55.1,30.25,South,171,0.0,-999.0,61,0.00,,,0.00,591,Wunderground v.1.15,2013-05-27 14:03:00,
2013-05-27 10:08:00,69.4,55.8,30.25,WSW,241,0.0,-999.0,62,0.00,,,0.00,642,Wunderground v.1.15,2013-05-27 14:08:00,
2013-05-27 10:13:00,69.8,55.7,30.25,WSW,241,0.0,-999.0,61,0.00,,,0.00,703,Wunderground v.1.15,2013-05-27 14:13:00,
2013-05-27 10:19:00,70.3,55.8,30.25,West,281,0.0,-999.0,60,0.00,,,0.00,719,Wunderground v.1.15,2013-05-27 14:19:00,
2013-05-27 10:25:00,70.3,55.8,30.24,West,281,0.0,-999.0,60,0.00,,,0.00,731,Wunderground v.1.15,2013-05-27 14:25:00,
2013-05-27 10:30:00,70.8,56.7,30.24,SE,138,0.0,-999.0,61,0.00,,,0.00,761,Wunderground v.1.15,2013-05-27 14:30:00,
2013-05-27 10:36:00,71.7,57.5,30.24,SW,230,0.0,-999.0,61,0.00,,,0.00,784,Wunderground v.1.15,2013-05-27 14:36:00,
2013-05-27 10:42:00,72.2,57.1,30.24,SW,222,0.0,-999.0,59,0.00,,,0.00,791,Wunderground v.1.15,2013-05-27 14:42:00,
2013-05-27 10:47:00,72.6,57.4,30.24,WSW,252,0.0,-999.0,59,0.00,,,0.00,809,Wunderground v.1.15,2013-05-27 14:47:00,
2013-05-27 10:52:00,73.2,56.6,30.24,SSE,149,0.0,-999.0,56,0.00,,,0.00,817,Wunderground v.1.15,2013-05-27 14:52:00,
2013-05-27 10:57:00,73.6,56.9,30.24,WSW,239,0.0,-999.0,56,0.00,,,0.00,826,Wunderground v.1.15,2013-05-27 14:57:00,
2013-05-27 11:03:00,74.3,57.6,30.24,WSW,253,0.0,-999.0,56,0.00,,,0.00,840,Wunderground v.1.15,2013-05-27 15:03:00,
2013-05-27 11:08:00,74.8,57.5,30.24,SW,216,0.0,-999.0,55,0.00,,,0.00,849,Wunderground v.1.15,2013-05-27 15:08:00,
2013-05-27 11:13:00,75.5,58.2,30.24,SW,217,0.0,-999.0,55,0.00,,,0.00,867,Wunderground v.1.15,2013-05-27 15:13:00,
2013-05-27 11:18:00,75.7,56.8,30.24,WNW,282,0.0,-999.0,52,0.00,,,0.00,868,Wunderground v.1.15,2013-05-27 15:18:00,
2013-05-27 11:24:00,76.0,58.7,30.24,WNW,285,0.0,-999.0,55,0.00,,,0.00,882,Wunderground v.1.15,2013-05-27 15:24:00,
2013-05-27 11:29:00,76.6,58.7,30.23,South,173,0.0,-999.0,54,0.00,,,0.00,907,Wunderground v.1.15,2013-05-27 15:29:00,
2013-05-27 11:34:00,76.7,57.2,30.23,SE,126,0.0,-999.0,51,0.00,,,0.00,935,Wunderground v.1.15,2013-05-27 15:34:00,
2013-05-27 11:39:00,76.5,57.6,30.23,SW,232,0.0,-999.0,52,0.00,,,0.00,928,Wunderground v.1.15,2013-05-27 15:39:00,
2013-05-27 11:45:00,76.7,57.2,30.23,WSW,254,1.0,-999.0,51,0.00,,,0.00,919,Wunderground v.1.15,2013-05-27 15:45:00,
2013-05-27 11:50:00,77.2,57.7,30.23,NW,324,0.0,-999.0,51,0.00,,,0.00,933,Wunderground v.1.15,2013-05-27 15:50:00,
2013-05-27 11:56:00,77.2,57.7,30.23,SW,224,1.0,-999.0,51,0.00,,,0.00,942,Wunderground v.1.15,2013-05-27 15:56:00,
2013-05-27 12:01:00,77.2,56.6,30.23,WSW,245,1.0,-999.0,49,0.00,,,0.00,926,Wunderground v.1.15,2013-05-27 16:01:00,
2013-05-27 12:06:00,76.9,57.4,30.22,WSW,257,1.0,-999.0,51,0.00,,,0.00,1011,Wunderground v.1.15,2013-05-27 16:06:00,
2013-05-27 12:11:00,76.5,57.6,30.22,SW,232,1.0,-999.0,52,0.00,,,0.00,1071,Wunderground v.1.15,2013-05-27 16:11:00,
2013-05-27 12:16:00,75.8,58.0,30.22,SW,227,1.0,-999.0,54,0.00,,,0.00,967,Wunderground v.1.15,2013-05-27 16:16:00,
2013-05-27 12:22:00,76.0,57.1,30.22,SW,232,1.0,-999.0,52,0.00,,,0.00,930,Wunderground v.1.15,2013-05-27 16:22:00,
2013-05-27 12:27:00,76.9,56.8,30.22,SSE,157,1.0,-999.0,50,0.00,,,0.00,875,Wunderground v.1.15,2013-05-27 16:27:00,
2013-05-27 12:32:00,77.4,57.9,30.21,West,281,0.0,-999.0,51,0.00,,,0.00,969,Wunderground v.1.15,2013-05-27 16:32:00,
2013-05-27 12:37:00,78.0,58.4,30.22,South,180,0.0,-999.0,51,0.00,,,0.00,970,Wunderground v.1.15,2013-05-27 16:37:00,
2013-05-27 12:43:00,78.0,56.7,30.22,West,268,0.0,-999.0,48,0.00,,,0.00,972,Wunderground v.1.15,2013-05-27 16:43:00,
2013-05-27 12:48:00,76.8,55.6,30.22,NW,304,3.0,-999.0,48,0.00,,,0.00,979,Wunderground v.1.15,2013-05-27 16:48:00,
2013-05-27 12:53:00,77.2,58.2,30.21,SW,231,3.0,-999.0,52,0.00,,,0.00,976,Wunderground v.1.15,2013-05-27 16:53:00,
2013-05-27 12:58:00,77.6,56.9,30.21,WSW,248,1.0,-999.0,49,0.00,,,0.00,979,Wunderground v.1.15,2013-05-27 16:58:00,
2013-05-27 13:03:00,77.4,57.3,30.21,NNW,333,2.0,-999.0,50,0.00,,,0.00,965,Wunderground v.1.15,2013-05-27 17:03:00,
2013-05-27 13:08:00,77.3,57.2,30.21,WNW,283,3.0,-999.0,50,0.00,,,0.00,986,Wunderground v.1.15,2013-05-27 17:08:00,
2013-05-27 13:14:00,77.4,56.7,30.21,NW,325,3.0,-999.0,49,0.00,,,0.00,995,Wunderground v.1.15,2013-05-27 17:14:00,
2013-05-27 13:19:00,77.6,57.5,30.21,SE,143,1.0,-999.0,50,0.00,,,0.00,995,Wunderground v.1.15,2013-05-27 17:19:00,
2013-05-27 13:24:00,78.7,58.5,30.20,SSW,198,0.0,-999.0,50,0.00,,,0.00,1046,Wunderground v.1.15,2013-05-27 17:24:00,
2013-05-27 13:29:00,78.7,60.1,30.20,SE,131,0.0,-999.0,53,0.00,,,0.00,1181,Wunderground v.1.15,2013-05-27 17:29:00,
2013-05-27 13:34:00,79.4,59.1,30.20,West,271,0.0,-999.0,50,0.00,,,0.00,578,Wunderground v.1.15,2013-05-27 17:34:00,
2013-05-27 13:39:00,78.9,58.7,30.20,WNW,292,0.0,-999.0,50,0.00,,,0.00,1102,Wunderground v.1.15,2013-05-27 17:39:00,
2013-05-27 13:45:00,78.7,59.0,30.20,NNW,327,1.0,-999.0,51,0.00,,,0.00,1046,Wunderground v.1.15,2013-05-27 17:45:00,
2013-05-27 13:51:00,79.4,60.2,30.19,West,269,2.0,-999.0,52,0.00,,,0.00,1032,Wunderground v.1.15,2013-05-27 17:51:00,
2013-05-27 13:56:00,79.4,59.7,30.19,South,190,1.0,-999.0,51,0.00,,,0.00,1085,Wunderground v.1.15,2013-05-27 17:56:00,
2013-05-27 14:01:00,78.7,58.5,30.19,SSE,149,1.0,-999.0,50,0.00,,,0.00,1130,Wunderground v.1.15,2013-05-27 18:01:00,
2013-05-27 14:06:00,80.6,60.2,30.19,WSW,252,1.0,-999.0,50,0.00,,,0.00,330,Wunderground v.1.15,2013-05-27 18:06:00,
2013-05-27 14:11:00,79.9,59.6,30.19,NW,304,1.0,-999.0,50,0.00,,,0.00,1051,Wunderground v.1.15,2013-05-27 18:11:00,
2013-05-27 14:17:00,79.5,59.2,30.19,WSW,243,1.0,-999.0,50,0.00,,,0.00,977,Wunderground v.1.15,2013-05-27 18:17:00,
2013-05-27 14:22:00,80.7,59.2,30.19,WSW,245,0.0,-999.0,48,0.00,,,0.00,960,Wunderground v.1.15,2013-05-27 18:22:00,
2013-05-27 14:27:00,80.5,59.0,30.18,WSW,248,0.0,-999.0,48,0.00,,,0.00,960,Wunderground v.1.15,2013-05-27 18:27:00,
2013-05-27 14:32:00,79.9,59.0,30.18,NW,322,1.0,-999.0,49,0.00,,,0.00,976,Wunderground v.1.15,2013-05-27 18:32:00,
2013-05-27 14:37:00,79.5,59.8,30.18,SE,134,1.0,-999.0,51,0.00,,,0.00,944,Wunderground v.1.15,2013-05-27 18:37:00,
2013-05-27 14:43:00,81.0,60.0,30.18,SW,225,1.0,-999.0,49,0.00,,,0.00,942,Wunderground v.1.15,2013-05-27 18:43:00,
2013-05-27 14:48:00,80.3,60.0,30.18,NW,325,1.0,-999.0,50,0.00,,,0.00,956,Wunderground v.1.15,2013-05-27 18:48:00,
2013-05-27 14:53:00,80.0,60.8,30.18,WNW,298,2.0,-999.0,52,0.00,,,0.00,995,Wunderground v.1.15,2013-05-27 18:53:00,
2013-05-27 14:59:00,80.3,60.5,30.18,NNW,329,1.0,-999.0,51,0.00,,,0.00,1067,Wunderground v.1.15,2013-05-27 18:59:00,
2013-05-27 15:05:00,80.4,60.1,30.17,WSW,239,1.0,-999.0,50,0.00,,,0.00,285,Wunderground v.1.15,2013-05-27 19:05:00,
2013-05-27 15:10:00,79.9,60.2,30.17,SSE,167,1.0,-999.0,51,0.00,,,0.00,988,Wunderground v.1.15,2013-05-27 19:10:00,
2013-05-27 15:16:00,80.3,60.5,30.17,West,270,0.0,-999.0,51,0.00,,,0.00,264,Wunderground v.1.15,2013-05-27 19:16:00,
2013-05-27 15:22:00,80.3,61.6,30.17,West,259,1.0,-999.0,53,0.00,,,0.00,879,Wunderground v.1.15,2013-05-27 19:22:00,
2013-05-27 15:27:00,80.6,59.7,30.17,West,265,0.0,-999.0,49,0.00,,,0.00,914,Wunderground v.1.15,2013-05-27 19:27:00,
2013-05-27 15:32:00,80.3,61.1,30.17,South,173,1.0,-999.0,52,0.00,,,0.00,919,Wunderground v.1.15,2013-05-27 19:32:00,
2013-05-27 15:37:00,79.8,60.1,30.16,West,272,1.0,-999.0,51,0.00,,,0.00,865,Wunderground v.1.15,2013-05-27 19:37:00,
2013-05-27 15:43:00,79.5,59.8,30.16,SW,229,1.0,-999.0,51,0.00,,,0.00,287,Wunderground v.1.15,2013-05-27 19:43:00,
2013-05-27 15:48:00,79.2,60.1,30.15,West,263,1.0,-999.0,52,0.00,,,0.00,564,Wunderground v.1.15,2013-05-27 19:48:00,
2013-05-27 15:53:00,79.4,62.3,30.15,WSW,255,1.0,-999.0,56,0.00,,,0.00,828,Wunderground v.1.15,2013-05-27 19:53:00,
2013-05-27 15:58:00,80.4,62.2,30.15,WSW,255,0.0,-999.0,54,0.00,,,0.00,807,Wunderground v.1.15,2013-05-27 19:58:00,
2013-05-27 16:04:00,80.6,60.2,30.15,NNW,336,1.0,-999.0,50,0.00,,,0.00,831,Wunderground v.1.15,2013-05-27 20:04:00,
2013-05-27 16:09:00,80.3,60.5,30.15,SW,219,2.0,-999.0,51,0.00,,,0.00,802,Wunderground v.1.15,2013-05-27 20:09:00,
2013-05-27 16:14:00,80.2,61.5,30.14,ENE,71,1.0,-999.0,53,0.00,,,0.00,773,Wunderground v.1.15,2013-05-27 20:14:00,
2013-05-27 16:19:00,79.8,60.6,30.14,SE,128,0.0,-999.0,52,0.00,,,0.00,738,Wunderground v.1.15,2013-05-27 20:19:00,
2013-05-27 16:24:00,79.9,61.2,30.14,WNW,298,0.0,-999.0,53,0.00,,,0.00,703,Wunderground v.1.15,2013-05-27 20:24:00,
2013-05-27 16:29:00,80.8,60.4,30.14,WSW,254,0.0,-999.0,50,0.00,,,0.00,691,Wunderground v.1.15,2013-05-27 20:29:00,
2013-05-27 16:35:00,80.7,60.9,30.14,West,271,0.0,-999.0,51,0.00,,,0.00,670,Wunderground v.1.15,2013-05-27 20:35:00,
2013-05-27 16:41:00,81.0,61.2,30.13,West,269,0.0,-999.0,51,0.00,,,0.00,645,Wunderground v.1.15,2013-05-27 20:41:00,
2013-05-27 16:46:00,80.6,61.3,30.13,WSW,246,1.0,-999.0,52,0.00,,,0.00,645,Wunderground v.1.15,2013-05-27 20:46:00,
2013-05-27 16:52:00,80.3,60.0,30.14,NNW,332,1.0,-999.0,50,0.00,,,0.00,264,Wunderground v.1.15,2013-05-27 20:52:00,
2013-05-27 16:58:00,79.8,60.1,30.13,West,263,0.0,-999.0,51,0.00,,,0.00,596,Wunderground v.1.15,2013-05-27 20:58:00,
2013-05-27 17:03:00,79.5,59.8,30.14,SSE,155,1.0,-999.0,51,0.00,,,0.00,591,Wunderground v.1.15,2013-05-27 21:03:00,
2013-05-27 17:09:00,79.6,59.9,30.13,West,265,1.0,-999.0,51,0.00,,,0.00,570,Wunderground v.1.15,2013-05-27 21:09:00,
2013-05-27 17:14:00,80.1,59.8,30.13,West,265,1.0,-999.0,50,0.00,,,0.00,557,Wunderground v.1.15,2013-05-27 21:14:00,
2013-05-27 17:20:00,80.8,60.4,30.13,WNW,294,0.0,-999.0,50,0.00,,,0.00,550,Wunderground v.1.15,2013-05-27 21:20:00,
2013-05-27 17:25:00,81.0,61.2,30.13,West,281,0.0,-999.0,51,0.00,,,0.00,547,Wunderground v.1.15,2013-05-27 21:25:00,
2013-05-27 17:30:00,80.5,60.7,30.13,WSW,244,0.0,-999.0,51,0.00,,,0.00,522,Wunderground v.1.15,2013-05-27 21:30:00,
2013-05-27 17:36:00,80.2,61.5,30.13,WSW,257,0.0,-999.0,53,0.00,,,0.00,508,Wunderground v.1.15,2013-05-27 21:36:00,
2013-05-27 17:41:00,79.9,60.7,30.13,South,180,0.0,-999.0,52,0.00,,,0.00,496,Wunderground v.1.15,2013-05-27 21:41:00,
2013-05-27 17:47:00,80.0,61.9,30.13,SSE,147,0.0,-999.0,54,0.00,,,0.00,163,Wunderground v.1.15,2013-05-27 21:47:00,
2013-05-27 17:52:00,80.2,60.4,30.13,SSE,152,0.0,-999.0,51,0.00,,,0.00,121,Wunderground v.1.15,2013-05-27 21:52:00,
2013-05-27 17:57:00,80.3,61.6,30.13,WSW,257,0.0,-999.0,53,0.00,,,0.00,411,Wunderground v.1.15,2013-05-27 21:57:00,
2013-05-27 18:02:00,80.6,61.9,30.13,WNW,284,0.0,-999.0,53,0.00,,,0.00,387,Wunderground v.1.15,2013-05-27 22:02:00,
2013-05-27 18:07:00,80.8,61.0,30.13,ESE,114,0.0,-999.0,51,0.00,,,0.00,362,Wunderground v.1.15,2013-05-27 22:07:00,
2013-05-27 18:13:00,81.0,61.7,30.13,WSW,240,0.0,-999.0,52,0.00,,,0.00,148,Wunderground v.1.15,2013-05-27 22:13:00,
2013-05-27 18:18:00,80.8,61.0,30.14,WSW,240,0.0,-999.0,51,0.00,,,0.00,153,Wunderground v.1.15,2013-05-27 22:18:00,
2013-05-27 18:23:00,80.6,62.4,30.14,WSW,254,0.0,-999.0,54,0.00,,,0.00,144,Wunderground v.1.15,2013-05-27 22:23:00,
2013-05-27 18:28:00,80.3,62.7,30.14,ESE,109,0.0,-999.0,55,0.00,,,0.00,200,Wunderground v.1.15,2013-05-27 22:28:00,
2013-05-27 18:34:00,80.2,62.0,30.13,East,93,0.0,-999.0,54,0.00,,,0.00,325,Wunderground v.1.15,2013-05-27 22:34:00,
2013-05-27 18:39:00,80.2,62.0,30.13,SSW,202,0.0,-999.0,54,0.00,,,0.00,250,Wunderground v.1.15,2013-05-27 22:39:00,
2013-05-27 18:44:00,80.1,61.4,30.13,SW,216,0.0,-999.0,53,0.00,,,0.00,118,Wunderground v.1.15,2013-05-27 22:44:00,
2013-05-27 18:49:00,80.0,62.4,30.13,WNW,282,0.0,-999.0,55,0.00,,,0.00,134,Wunderground v.1.15,2013-05-27 22:49:00,
2013-05-27 18:54:00,79.6,61.5,30.14,SE,124,0.0,-999.0,54,0.00,,,0.00,98,Wunderground v.1.15,2013-05-27 22:54:00,
2013-05-27 19:01:00,79.3,61.7,30.14,SW,219,0.0,-999.0,55,0.00,,,0.00,114,Wunderground v.1.15,2013-05-27 23:01:00,
2013-05-27 19:06:00,79.1,61.0,30.14,SW,225,0.0,-999.0,54,0.00,,,0.00,90,Wunderground v.1.15,2013-05-27 23:06:00,
2013-05-27 19:11:00,78.9,61.4,30.14,SW,225,0.0,-999.0,55,0.00,,,0.00,74,Wunderground v.1.15,2013-05-27 23:11:00,
2013-05-27 19:16:00,78.7,61.2,30.15,SW,225,0.0,-999.0,55,0.00,,,0.00,70,Wunderground v.1.15,2013-05-27 23:16:00,
2013-05-27 19:21:00,78.3,60.8,30.14,ESE,121,0.0,-999.0,55,0.00,,,0.00,62,Wunderground v.1.15,2013-05-27 23:21:00,
2013-05-27 19:26:00,77.9,60.9,30.15,South,171,0.0,-999.0,56,0.00,,,0.00,79,Wunderground v.1.15,2013-05-27 23:26:00,
2013-05-27 19:32:00,77.6,61.2,30.14,South,171,0.0,-999.0,57,0.00,,,0.00,65,Wunderground v.1.15,2013-05-27 23:32:00,
2013-05-27 19:37:00,77.5,61.1,30.14,South,171,0.0,-999.0,57,0.00,,,0.00,60,Wunderground v.1.15,2013-05-27 23:37:00,
2013-05-27 19:42:00,77.3,60.4,30.13,ESE,110,0.0,-999.0,56,0.00,,,0.00,47,Wunderground v.1.15,2013-05-27 23:42:00,
2013-05-27 19:47:00,77.0,60.1,30.13,SSW,196,0.0,-999.0,56,0.00,,,0.00,46,Wunderground v.1.15,2013-05-27 23:47:00,
2013-05-27 19:53:00,76.7,60.3,30.12,South,171,0.0,-999.0,57,0.00,,,0.00,32,Wunderground v.1.15,2013-05-27 23:53:00,
2013-05-27 19:58:00,76.3,60.4,30.12,South,173,0.0,-999.0,58,0.00,,,0.00,26,Wunderground v.1.15,2013-05-27 23:58:00,
2013-05-27 20:03:00,75.9,59.6,30.12,South,171,0.0,-999.0,57,0.00,,,0.00,23,Wunderground v.1.15,2013-05-28 00:03:00,
2013-05-27 20:08:00,75.7,59.9,30.11,SW,217,0.0,-999.0,58,0.00,,,0.00,18,Wunderground v.1.15,2013-05-28 00:08:00,
2013-05-27 20:14:00,75.4,59.6,30.11,SW,217,0.0,-999.0,58,0.00,,,0.00,12,Wunderground v.1.15,2013-05-28 00:14:00,
2013-05-27 20:20:00,75.0,59.2,30.11,South,186,0.0,-999.0,58,0.00,,,0.00,7,Wunderground v.1.15,2013-05-28 00:20:00,
2013-05-27 20:25:00,74.8,59.0,30.11,South,185,0.0,-999.0,58,0.00,,,0.00,0,Wunderground v.1.15,2013-05-28 00:25:00,
2013-05-27 20:30:00,74.5,58.8,30.11,South,185,0.0,-999.0,58,0.00,,,0.00,0,Wunderground v.1.15,2013-05-28 00:30:00,
2013-05-27 20:36:00,74.2,58.9,30.11,ESE,113,0.0,-999.0,59,0.00,,,0.00,0,Wunderground v.1.15,2013-05-28 00:36:00,
2013-05-27 20:41:00,74.0,58.8,30.11,ESE,113,0.0,-999.0,59,0.00,,,0.00,0,Wunderground v.1.15,2013-05-28 00:41:00,
2013-05-27 20:46:00,73.8,58.6,30.11,ESE,113,0.0,-999.0,59,0.00,,,0.00,0,Wunderground v.1.15,2013-05-28 00:46:00,
2013-05-27 20:52:00,73.5,58.3,30.11,ESE,113,0.0,-999.0,59,0.00,,,0.00,0,Wunderground v.1.15,2013-05-28 00:52:00,
2013-05-27 20:57:00,73.3,58.6,30.11,ESE,113,0.0,-999.0,60,0.00,,,0.00,0,Wunderground v.1.15,2013-05-28 00:57:00,
2013-05-27 21:02:00,73.0,58.3,30.11,ESE,113,0.0,-999.0,60,0.00,,,0.00,0,Wunderground v.1.15,2013-05-28 01:02:00,
2013-05-27 21:07:00,72.8,58.6,30.11,SE,126,0.0,-999.0,61,0.00,,,0.00,0,Wunderground v.1.15,2013-05-28 01:07:00,
2013-05-27 21:12:00,72.5,58.3,30.12,SE,126,0.0,-999.0,61,0.00,,,0.00,0,Wunderground v.1.15,2013-05-28 01:12:00,
2013-05-27 21:18:00,72.3,58.1,30.12,SE,126,0.0,-999.0,61,0.00,,,0.00,0,Wunderground v.1.15,2013-05-28 01:18:00,
2013-05-27 21:23:00,72.1,58.4,30.13,SE,126,0.0,-999.0,62,0.00,,,0.00,0,Wunderground v.1.15,2013-05-28 01:23:00,
2013-05-27 21:29:00,71.8,58.1,30.13,SE,126,0.0,-999.0,62,0.00,,,0.00,0,Wunderground v.1.15,2013-05-28 01:29:00,
2013-05-27 21:34:00,71.6,58.3,30.14,SE,126,0.0,-999.0,63,0.00,,,0.00,0,Wunderground v.1.15,2013-05-28 01:34:00,
2013-05-27 21:39:00,71.4,58.1,30.14,SE,126,0.0,-999.0,63,0.00,,,0.00,0,Wunderground v.1.15,2013-05-28 01:39:00,
2013-05-27 21:44:00,71.2,58.4,30.14,SE,126,0.0,-999.0,64,0.00,,,0.00,0,Wunderground v.1.15,2013-05-28 01:44:00,
2013-05-27 21:49:00,71.0,58.2,30.14,SE,126,0.0,-999.0,64,0.00,,,0.00,0,Wunderground v.1.15,2013-05-28 01:49:00,
2013-05-27 21:55:00,70.6,58.7,30.15,SE,126,0.0,-999.0,66,0.00,,,0.00,0,Wunderground v.1.15,2013-05-28 01:55:00,
2013-05-27 22:00:00,70.2,58.7,30.15,SE,126,0.0,-999.0,67,0.00,,,0.00,0,Wunderground v.1.15,2013-05-28 02:00:00,
2013-05-27 22:05:00,69.7,58.3,30.15,SE,126,0.0,-999.0,67,0.00,,,0.00,0,Wunderground v.1.15,2013-05-28 02:05:00,
2013-05-27 22:10:00,69.3,58.3,30.16,SE,126,0.0,-999.0,68,0.00,,,0.00,0,Wunderground v.1.15,2013-05-28 02:10:00,
2013-05-27 22:15:00,69.0,58.0,30.16,SE,126,0.0,-999.0,68,0.00,,,0.00,0,Wunderground v.1.15,2013-05-28 02:15:00,
2013-05-27 22:20:00,68.7,58.1,30.16,SE,126,0.0,-999.0,69,0.00,,,0.00,0,Wunderground v.1.15,2013-05-28 02:20:00,
2013-05-27 22:25:00,68.5,57.9,30.16,SE,126,0.0,-999.0,69,0.00,,,0.00,0,Wunderground v.1.15,2013-05-28 02:25:00,
2013-05-27 22:30:00,68.2,58.0,30.16,SE,126,0.0,-999.0,70,0.00,,,0.00,0,Wunderground v.1.15,2013-05-28 02:30:00,
2013-05-27 22:36:00,67.8,58.1,30.16,SE,126,0.0,-999.0,71,0.00,,,0.00,0,Wunderground v.1.15,2013-05-28 02:36:00,
2013-05-27 22:42:00,67.4,57.7,30.16,SE,126,0.0,-999.0,71,0.00,,,0.00,0,Wunderground v.1.15,2013-05-28 02:42:00,
2013-05-27 22:47:00,67.1,57.8,30.16,SE,126,0.0,-999.0,72,0.00,,,0.00,0,Wunderground v.1.15,2013-05-28 02:47:00,
2013-05-27 22:52:00,66.9,57.6,30.16,SE,126,0.0,-999.0,72,0.00,,,0.00,0,Wunderground v.1.15,2013-05-28 02:52:00,
2013-05-27 22:57:00,66.6,57.7,30.16,SE,126,0.0,-999.0,73,0.00,,,0.00,0,Wunderground v.1.15,2013-05-28 02:57:00,
2013-05-27 23:02:00,66.5,57.6,30.16,SE,126,0.0,-999.0,73,0.00,,,0.00,0,Wunderground v.1.15,2013-05-28 03:02:00,
2013-05-27 23:08:00,66.2,57.7,30.16,SE,126,0.0,-999.0,74,0.00,,,0.00,0,Wunderground v.1.15,2013-05-28 03:08:00,
2013-05-27 23:13:00,66.1,57.6,30.16,SE,126,0.0,-999.0,74,0.00,,,0.00,0,Wunderground v.1.15,2013-05-28 03:13:00,
2013-05-27 23:18:00,65.9,57.7,30.16,SE,126,0.0,-999.0,75,0.00,,,0.00,0,Wunderground v.1.15,2013-05-28 03:18:00,
2013-05-27 23:23:00,65.6,57.5,30.16,SE,126,0.0,-999.0,75,0.00,,,0.00,0,Wunderground v.1.15,2013-05-28 03:23:00,
2013-05-27 23:28:00,65.4,57.3,30.16,SE,126,0.0,-999.0,75,0.00,,,0.00,0,Wunderground v.1.15,2013-05-28 03:28:00,
2013-05-27 23:33:00,65.1,57.7,30.16,SE,126,0.0,-999.0,77,0.00,,,0.00,0,Wunderground v.1.15,2013-05-28 03:33:00,
2013-05-27 23:39:00,64.9,57.9,30.16,SE,126,0.0,-999.0,78,0.00,,,0.00,0,Wunderground v.1.15,2013-05-28 03:39:00,
2013-05-27 23:44:00,64.7,57.7,30.16,SE,126,0.0,-999.0,78,0.00,,,0.00,0,Wunderground v.1.15,2013-05-28 03:44:00,
2013-05-27 23:49:00,64.5,57.5,30.16,SE,126,0.0,-999.0,78,0.00,,,0.00,0,Wunderground v.1.15,2013-05-28 03:49:00,
2013-05-27 23:54:00,64.3,57.6,30.16,SE,126,0.0,-999.0,79,0.00,,,0.00,0,Wunderground v.1.15,2013-05-28 03:54:00,
2013-05-27 23:59:00,64.1,57.5,30.15,SE,126,0.0,-999.0,79,0.00,,,0.00,0,Wunderground v.1.15,2013-05-28 03:59:00,